Wind_Speed
35 36 37 35 36 37 39 41 42 44 46 46 47 48 50 52 54 56 56 57 58 58 59 59 60 61 62 62 63 64 65 66 67 68 69 70 70 71 72 71 71 70 70 70 70 70 70 70 69 70 70 70 71 72 72 72 72 72 72 73 74 74 74 74 75 76 76 78 79 81 82 83 84 84 84 84 84 85 85 86 85 85 85 86 85
38 38 38 38 38 40 42 42 44 45 47 48 50 51 53 54 56 57 58 58 59 59 59 59 60 60 60 61 62 64 66 67 68 69 69 70 70 71 72 73 73 72 72 72 72 72 71 71 71 71 71 71 72 72 72 73 73 73 73 74 74 74 75 76 76 76 77 77 78 79 80 81 82 82 82 82 82 82 83 83 84 84 85 85 85
40 39 40 40 41 42 44 45 46 47 48 50 52 54 55 56 57 57 58 59 60 60 59 59 59 59 59 58 59 61 63 65 67 69 70 71 71 71 72 74 74 74 74 74 74 73 73 73 73 73 72 72 73 73 74 74 75 75 75 75 75 75 75 76 77 77 77 77 77 78 78 79 80 81 81 81 80 80 81 81 82 82 83 84 85
42 42 43 44 45 46 47 49 50 51 51 51 52 53 54 55 55 55 55 56 57 58 57 57 57 56 56 57 57 58 59 61 63 65 68 70 71 72 73 73 74 75 75 76 76 76 75 75 75 75 75 74 75 75 76 76 77 77 77 77 76 76 76 76 77 78 78 78 77 77 77 76 77 78 79 79 79 79 79 80 80 81 81 82 83
41 43 44 47 49 50 49 49 49 49 48 47 47 48 49 49 49 50 50 51 52 52 53 54 54 54 55 55 56 57 58 58 58 59 61 64 66 69 71 72 73 74 75 76 77 78 77 77 77 77 77 77 77 78 78 79 79 78 78 78 78 77 77 77 78 78 78 78 78 78 77 77 77 77 77 78 78 78 79 79 79 80 80 80 81
40 42 43 45 47 48 48 45 43 42 41 41 41 43 44 45 45 46 47 48 49 50 51 52 53 53 53 55 55 56 57 57 57 57 57 57 60 62 65 66 67 69 70 72 74 76 77 77 77 77 77 77 78 79 79 80 81 80 79 78 78 78 78 78 78 78 78 78 78 78 78 78 77 77 77 77 77 77 78 78 78 79 79 79 79
40 41 42 44 44 44 43 40 39 39 39 39 40 42 44 45 46 46 46 47 48 49 50 51 52 52 52 53 53 54 54 55 55 56 55 55 56 57 59 60 61 62 63 65 67 70 72 73 73 74 74 74 76 77 77 77 78 78 78 77 77 76 76 77 77 76 76 76 76 77 77 77 77 77 77 77 77 77 77 77 78 78 78 78 79
40 40 40 41 42 41 40 38 38 39 41 42 43 44 45 46 47 47 47 47 47 49 49 50 50 50 50 51 52 52 52 53 54 55 55 55 55 55 56 56 57 58 58 58 59 62 64 66 67 69 69 69 71 72 73 73 74 73 73 73 73 72 72 72 72 72 73 73 74 74 75 75 75 76 76 76 76 76 77 77 77 77 78 78 79
40 41 41 40 40 41 40 39 39 40 41 42 43 44 44 44 44 45 46 47 47 48 49 49 49 49 49 49 50 50 51 52 52 54 54 54 54 54 54 53 54 55 56 56 55 57 58 60 62 63 64 64 65 66 67 68 68 67 67 67 67 67 66 66 66 66 67 68 69 70 70 70 71 72 73 73 74 74 75 75 76 77 77 77 78
41 41 41 40 40 41 40 40 39 39 40 41 42 42 41 40 40 41 42 43 44 45 46 46 47 47 47 48 48 49 50 51 52 53 53 52 53 53 54 53 53 54 54 55 54 55 56 57 59 59 60 61 62 62 62 62 62 62 62 62 61 61 61 61 61 62 63 64 65 66 66 65 66 67 68 69 70 71 71 72 73 74 74 75 75
42 38 38 39 40 41 41 40 40 39 39 40 41 41 39 38 37 38 38 39 40 42 44 45 45 45 46 47 48 49 50 52 53 54 54 54 54 55 55 54 54 54 54 54 54 56 57 58 59 59 60 60 61 61 61 60 60 59 59 59 59 60 60 61 61 62 63 63 63 63 63 62 62 63 64 65 66 67 67 68 69 69 70 70 70
41 38 37 38 38 39 40 40 40 39 39 39 38 38 37 37 37 37 38 39 40 41 43 44 45 45 46 48 50 52 53 55 56 57 57 57 56 56 55 54 54 54 55 55 56 57 59 60 61 61 60 61 61 61 62 61 61 60 59 59 59 60 61 61 61 61 60 60 61 61 61 61 61 61 61 61 62 63 63 64 64 65 65 65 65
40 39 39 38 38 38 39 40 39 39 39 38 36 36 36 37 38 39 41 42 43 43 44 44 45 45 47 49 51 52 54 54 54 54 54 53 51 51 51 52 52 53 54 55 56 57 58 59 60 61 61 61 62 63 63 63 62 61 60 60 60 60 60 60 59 58 57 56 57 58 58 58 58 58 58 58 58 58 59 59 59 59 59 59 59
36 37 38 37 37 37 38 39 39 39 38 37 36 36 37 37 38 40 41 42 44 45 46 46 45 45 46 48 49 48 47 46 46 45 44 44 43 43 44 45 45 46 46 47 49 50 51 53 54 56 57 58 60 62 62 63 63 63 63 63 62 62 61 60 59 58 56 55 55 55 55 55 55 54 53 52 52 52 52 52 52 51 51 51 51
32 33 34 35 35 35 36 37 37 37 37 37 37 38 38 38 38 39 40 42 44 45 45 45 44 45 45 46 44 42 40 39 38 38 37 37 36 36 36 35 35 35 36 36 36 37 38 40 42 43 44 46 49 53 55 57 58 59 60 61 61 60 60 58 57 56 55 54 53 52 51 51 50 48 46 45 45 45 44 44 44 44 44 45 45
32 31 32 33 34 34 35 36 36 36 36 36 37 37 37 38 39 40 41 42 43 44 44 43 43 43 42 41 39 37 36 36 35 34 33 33 32 30 30 29 29 29 29 29 29 30 31 31 32 32 33 34 36 38 41 43 46 48 51 53 54 54 53 53 52 52 51 50 49 48 46 45 44 42 39 38 37 37 38 40 40 41 41 42 43
32 32 31 31 32 33 33 34 35 35 35 35 36 36 37 39 41 42 42 41 41 41 41 41 41 40 38 35 34 34 33 32 31 30 30 29 29 28 28 28 28 28 28 29 30 30 31 31 31 30 29 29 29 30 31 33 36 39 42 44 44 45 45 45 45 45 45 45 44 43 43 41 40 37 34 33 33 33 36 39 39 40 41 42 42
31 31 32 31 31 32 34 34 35 35 35 35 35 37 39 40 40 40 40 39 38 37 38 38 38 36 34 32 31 32 31 30 29 29 28 27 27 27 28 28 29 29 30 31 31 30 31 31 31 31 31 30 29 29 29 31 33 37 38 37 38 39 39 40 40 41 42 41 41 41 40 40 38 36 34 32 32 33 36 39 39 40 41 41 41
32 31 32 33 34 36 37 36 35 35 35 35 35 36 37 37 37 36 36 36 35 34 35 36 35 34 33 32 32 31 31 29 28 28 28 28 28 28 29 30 31 32 33 33 32 32 32 31 30 30 31 31 30 30 31 33 35 36 36 35 36 37 37 38 38 38 39 39 39 39 38 38 38 37 37 35 34 35 37 39 38 39 40 40 41
34 34 35 35 35 37 36 34 33 34 35 35 35 35 34 34 34 33 33 32 32 33 34 34 33 33 33 33 33 32 31 29 29 29 29 29 30 31 32 32 33 34 34 34 34 33 33 32 31 30 30 30 30 31 32 34 36 36 36 36 36 36 36 36 35 35 36 37 38 38 37 37 38 39 38 36 37 39 38 37 36 37 39 41 42
35 36 35 32 32 32 31 31 31 32 32 32 32 32 32 32 31 31 31 32 32 33 33 33 32 32 33 33 34 33 32 31 30 30 31 32 32 33 34 34 34 34 34 34 34 34 34 34 33 31 30 30 31 32 34 36 36 36 35 35 35 35 35 34 34 34 35 37 37 38 37 38 39 40 38 38 39 40 40 39 39 40 41 42 42
36 36 34 32 30 28 27 27 28 27 28 29 29 30 31 31 30 31 32 33 33 33 33 33 34 34 34 34 35 34 33 33 32 33 33 34 35 36 36 36 36 36 35 35 35 35 35 35 35 33 31 31 32 33 35 37 37 36 35 34 33 32 32 32 33 33 34 36 37 38 38 40 41 41 40 40 40 39 40 41 42 43 44 43 42
35 33 33 32 29 26 23 23 24 25 26 27 28 28 29 30 30 32 33 34 34 34 34 35 35 35 35 36 36 34 34 35 35 34 35 36 37 37 38 38 38 37 37 36 36 36 35 35 36 35 34 33 34 35 36 38 37 37 37 37 35 33 32 32 33 33 34 36 37 38 39 41 42 42 41 41 40 40 41 42 44 45 46 46 45
25 24 25 26 24 21 21 21 23 25 26 27 27 28 30 31 32 33 33 34 34 34 34 35 35 36 36 36 36 35 35 36 37 37 36 37 37 38 39 38 38 39 39 38 38 38 37 36 36 36 36 37 37 37 38 39 38 37 38 39 39 37 35 34 36 36 37 37 37 37 39 40 42 42 41 40 41 41 41 42 44 45 47 48 47
16 16 17 19 18 18 20 22 23 24 25 26 28 29 31 33 34 34 35 35 35 35 35 35 35 35 35 35 36 36 37 37 38 38 38 39 39 40 40 40 40 40 40 40 40 40 40 39 38 37 37 38 38 38 39 40 40 39 39 40 40 40 38 37 38 40 40 41 39 38 39 40 41 41 39 39 42 43 43 44 45 47 49 49 48
13 13 14 16 18 19 21 21 22 23 24 26 28 30 31 32 34 35 36 37 38 38 38 37 37 36 35 36 36 37 38 39 39 40 40 41 42 42 42 42 42 42 42 42 42 42 42 42 41 40 39 39 38 38 39 40 40 39 39 40 40 40 40 40 40 41 43 44 43 42 41 40 41 42 41 42 44 46 47 47 49 49 50 50 49
12 13 14 16 18 20 21 21 22 23 25 27 29 30 31 32 33 34 36 38 39 40 39 38 37 37 37 37 37 37 38 38 39 40 41 42 43 44 44 44 44 44 44 44 44 44 44 44 43 42 42 41 40 39 40 41 40 39 40 41 40 40 40 41 41 42 42 44 45 44 44 43 43 44 45 46 46 48 49 50 50 51 51 51 49
14 14 15 17 18 19 21 22 24 26 27 28 30 31 32 33 34 34 36 37 38 38 38 37 37 37 37 37 37 37 37 38 38 39 40 41 42 43 44 45 45 46 46 46 46 45 45 45 45 44 43 43 42 41 42 42 41 40 41 42 42 41 41 42 42 42 43 43 44 45 45 45 46 47 48 49 50 51 51 51 51 52 52 51 50
16 16 17 17 19 21 22 24 25 27 28 29 30 31 32 33 33 33 33 34 35 35 35 35 35 36 36 37 37 37 37 37 37 37 37 38 40 41 42 42 43 44 45 45 45 46 46 45 45 45 44 43 43 44 44 45 43 43 43 42 43 43 43 44 44 44 44 44 43 43 44 45 47 49 50 52 53 53 53 52 52 52 52 52 52
17 18 18 19 21 22 23 24 25 26 27 28 30 31 32 32 32 32 32 32 32 33 33 34 35 36 37 37 37 36 36 36 36 36 36 37 38 39 40 41 41 42 43 44 44 44 45 45 45 45 45 44 44 44 46 46 45 45 45 44 44 44 45 46 45 45 45 45 45 44 44 46 48 49 50 51 52 53 53 52 52 51 52 53 54
16 17 18 20 21 22 22 23 24 26 28 29 30 30 30 30 30 30 30 30 31 32 32 33 35 35 36 36 36 35 35 35 35 36 36 36 37 38 40 41 42 42 42 43 43 44 44 45 45 45 46 46 45 45 46 48 48 47 47 46 46 46 47 47 47 47 47 47 48 48 48 49 50 51 52 52 52 52 53 53 52 52 52 53 55
16 18 19 20 21 21 21 22 23 25 26 27 27 27 27 27 28 28 28 29 29 30 31 32 33 34 34 35 35 35 35 36 36 37 37 36 36 37 38 40 41 42 43 43 44 44 45 46 46 46 46 46 46 46 47 49 50 50 49 49 49 49 49 49 50 50 50 51 50 50 51 52 53 54 55 55 54 54 54 55 55 55 55 55 56
17 18 19 20 20 20 20 20 21 22 23 23 23 23 24 24 24 25 25 26 27 28 28 29 30 31 32 33 33 34 34 35 36 37 37 38 38 37 38 39 40 41 42 43 44 45 46 46 47 47 48 48 48 48 49 50 51 51 51 51 51 52 53 53 53 54 54 55 55 54 54 54 56 57 58 58 58 58 58 58 59 59 59 58 59
16 17 17 17 17 17 17 17 18 19 19 18 19 19 20 20 21 22 23 23 24 24 25 26 26 27 29 30 30 31 32 33 34 34 35 36 37 38 39 39 40 41 41 42 43 45 46 46 47 48 48 49 49 50 50 51 53 53 52 53 53 54 55 56 56 56 57 58 59 59 59 58 59 60 60 61 62 62 62 62 62 62 62 62 63
13 13 13 13 13 13 13 14 15 15 15 16 18 19 19 20 21 22 23 23 24 24 25 26 26 27 28 29 30 30 31 32 33 34 34 35 36 38 39 40 41 41 42 43 44 45 46 46 48 49 49 49 50 50 51 52 54 54 55 55 55 55 56 58 58 58 59 60 60 61 62 63 63 63 63 63 64 65 66 66 66 66 66 67 67
10 10 10 10 9 10 11 12 13 14 16 18 19 19 20 21 22 23 24 24 24 25 26 27 28 29 29 30 31 32 33 34 34 35 36 36 37 38 39 40 40 41 42 43 45 46 47 48 48 49 51 51 51 52 52 53 54 56 57 58 58 57 58 59 59 59 60 61 61 62 63 64 65 65 65 66 67 68 70 71 70 69 69 70 71
8 8 8 8 8 10 12 13 15 16 17 19 19 20 20 21 21 22 22 23 23 24 25 26 26 27 28 29 29 30 31 32 33 34 36 37 38 39 40 41 42 42 43 44 45 46 48 50 50 50 52 53 53 53 54 54 55 57 60 61 61 60 60 60 61 61 61 62 62 63 64 65 65 66 68 69 70 71 72 72 71 71 71 71 71
7 6 7 8 10 12 13 15 16 17 17 18 19 19 19 20 20 21 22 23 23 24 25 25 25 26 26 27 27 28 29 30 31 31 33 34 36 38 39 41 43 44 45 46 47 48 49 51 53 53 53 54 54 54 55 55 56 57 60 63 64 63 62 62 62 63 62 63 64 64 65 66 66 68 69 71 72 73 73 72 72 71 71 71 71
6 7 8 10 12 13 14 15 16 16 16 16 17 18 19 21 22 23 23 24 24 25 25 26 26 26 26 27 27 28 28 29 30 31 31 32 33 35 36 38 40 42 44 46 48 49 51 53 55 56 56 56 57 57 57 57 58 58 59 63 65 65 64 63 64 66 64 64 65 65 66 67 67 68 70 73 75 75 74 72 72 72 71 71 71
7 8 10 11 11 12 14 15 15 15 15 17 18 19 20 21 22 22 23 23 24 25 26 26 26 27 28 28 29 30 31 32 32 33 34 34 35 35 36 37 38 39 41 43 44 46 49 51 53 56 57 59 59 59 59 60 60 59 59 62 65 66 65 64 65 67 65 65 65 66 67 68 67 67 70 74 75 74 73 72 71 71 70 70 71
8 9 9 10 11 12 12 13 13 15 16 17 18 18 19 20 21 22 23 24 25 26 26 27 28 29 30 31 32 32 33 34 35 36 37 38 39 39 40 40 41 41 42 43 43 44 46 48 50 53 55 58 60 61 61 62 63 62 62 63 65 66 66 65 66 67 66 65 65 65 66 68 67 66 69 72 73 73 73 72 71 71 70 70 71
9 9 9 9 10 11 12 13 15 16 17 17 17 19 20 21 23 24 25 26 27 28 28 29 30 31 31 31 32 32 33 34 36 37 39 40 42 43 44 45 46 46 47 48 48 49 50 50 51 53 54 56 59 60 60 62 63 64 64 65 67 68 67 65 65 66 66 66 67 66 64 66 66 66 69 72 73 73 73 72 72 71 70 69 69
8 9 9 10 11 13 14 15 16 16 17 19 20 22 23 24 25 26 27 28 29 30 30 30 30 30 30 31 31 32 33 34 36 37 39 41 42 44 45 46 47 49 50 51 52 53 55 56 57 58 60 60 62 62 61 61 62 63 65 65 67 69 69 67 66 65 66 68 69 68 66 67 67 67 70 73 73 73 72 72 71 70 69 68 68
8 9 10 12 13 14 15 16 17 18 20 22 23 25 26 27 29 30 30 30 30 29 29 29 29 30 31 33 34 34 35 35 36 37 39 41 42 43 44 44 45 46 48 50 52 54 55 57 59 61 63 65 67 68 66 64 63 63 64 64 65 67 68 68 66 65 68 70 69 68 70 70 69 69 72 74 75 73 71 70 69 68 67 67 67
10 11 13 14 15 15 16 18 20 21 22 24 25 25 27 28 29 29 29 29 29 29 30 31 32 34 36 37 38 39 39 38 38 38 40 42 43 44 44 45 45 46 48 49 51 53 55 57 60 62 63 65 68 72 72 70 67 65 65 64 64 64 65 66 65 64 67 70 70 70 72 71 69 70 72 74 75 73 70 68 67 66 66 65 64
12 13 14 15 16 17 19 21 22 23 24 25 26 27 28 29 29 30 31 32 33 34 35 36 38 39 40 41 42 42 41 40 40 40 41 44 46 47 47 48 48 49 50 52 53 55 58 59 61 63 65 66 68 71 74 73 71 69 67 66 65 64 64 64 64 62 65 69 69 70 73 72 71 71 71 73 75 73 69 68 67 66 65 64 62
13 14 15 17 18 19 21 22 24 25 26 27 29 31 32 33 34 35 36 37 38 39 40 40 40 41 41 42 43 43 43 42 42 43 44 47 49 50 50 51 52 53 54 56 58 60 62 63 64 65 66 67 68 70 73 75 74 71 68 67 67 66 65 64 62 62 63 66 67 68 70 71 72 72 72 74 75 73 70 68 66 65 64 63 61
14 15 17 18 19 21 22 24 25 26 28 30 32 34 36 37 38 39 40 41 42 43 43 43 42 42 42 42 44 45 45 45 45 46 47 49 51 52 53 54 55 57 59 61 63 65 67 68 68 68 68 68 68 69 71 74 75 74 70 68 68 68 67 66 64 63 63 65 66 67 67 69 71 70 70 72 73 73 71 68 66 64 63 63 62
16 16 18 19 21 23 24 25 27 28 31 33 35 37 38 39 39 40 42 43 44 44 45 44 44 43 43 44 46 48 49 49 48 49 50 51 52 54 55 57 58 60 63 65 68 69 70 71 70 69 69 68 68 68 69 71 73 74 72 69 68 68 68 68 67 65 65 65 66 67 67 68 70 69 69 71 73 73 71 68 65 64 65 65 63
16 17 19 21 22 24 25 27 29 31 33 34 36 38 39 41 41 42 43 44 45 46 47 47 47 46 46 47 49 51 52 52 52 52 53 54 54 56 58 59 61 63 66 68 70 72 72 72 71 69 69 68 68 67 66 66 68 69 69 67 66 66 68 69 68 68 67 67 68 68 68 69 69 69 69 71 73 72 70 68 65 64 65 65 64
17 18 20 21 22 25 27 29 31 32 34 35 37 39 41 42 43 44 45 46 47 48 49 50 50 50 50 51 52 54 54 54 54 54 55 56 57 58 60 62 65 67 69 71 72 72 72 70 69 67 66 65 63 62 60 60 61 62 62 62 61 61 64 67 68 68 68 69 70 70 70 70 69 69 68 68 69 70 70 68 65 64 65 64 63
Wind_Direction
246 248 250 251 250 249 248 249 250 250 250 251 251 252 253 253 254 255 255 257 258 259 260 260 261 261 261 262 262 262 262 262 263 263 262 262 261 259 259 259 260 261 261 262 262 263 263 263 263 263 263 262 261 261 261 261 261 261 261 261 260 260 260 260 260 260 259 259 259 260 261 262 263 263 264 265 265 265 265 265 265 265 265 265 265
247 248 249 251 252 250 250 250 252 252 252 253 254 255 255 255 255 256 257 259 261 261 261 262 263 262 262 262 262 263 263 263 263 263 263 263 262 261 260 260 261 261 262 262 262 263 263 263 263 263 263 263 262 262 262 262 262 262 261 261 261 261 261 261 260 260 260 260 260 260 261 262 263 264 264 265 266 266 266 266 266 266 266 266 266
249 249 250 251 252 252 251 252 254 253 254 256 257 257 257 258 258 259 260 262 263 264 263 264 264 264 263 263 264 264 265 265 265 264 264 264 263 263 261 260 260 261 262 262 262 262 263 263 263 263 263 263 263 262 262 263 263 263 263 262 262 262 262 262 262 261 261 261 262 262 262 262 263 264 265 266 266 267 267 266 266 266 266 266 266
252 252 252 253 254 256 257 257 257 257 258 259 258 258 259 261 261 262 263 264 265 265 264 265 265 265 264 263 264 266 267 269 269 268 266 265 265 264 264 262 262 262 262 262 262 262 262 262 263 263 263 264 263 263 262 263 263 263 263 263 263 263 264 264 264 263 263 262 262 263 264 264 264 264 265 266 267 267 268 267 267 267 267 267 267
257 257 256 256 258 260 260 260 258 258 258 258 258 258 261 263 263 264 264 265 266 266 266 266 266 266 265 264 265 268 269 271 272 271 270 269 267 266 266 265 265 264 264 264 263 262 263 263 263 263 264 264 264 263 263 263 263 263 264 263 263 263 264 265 265 265 265 264 264 264 264 265 266 266 266 266 267 268 268 268 268 268 268 268 267
262 261 260 260 260 260 260 260 257 256 257 258 260 262 265 267 267 269 269 269 268 269 269 268 268 268 267 266 268 270 272 272 273 274 274 272 271 269 268 267 267 267 267 266 266 264 264 264 265 265 264 264 264 264 264 264 264 264 264 264 263 263 264 265 265 266 266 266 265 265 264 265 266 266 267 267 268 268 269 269 269 269 269 269 269
264 264 263 261 261 259 258 257 255 257 260 263 265 267 269 269 270 271 273 273 271 271 271 271 270 270 269 270 271 273 274 274 274 275 275 275 274 273 271 270 270 270 269 268 268 267 266 266 266 266 266 265 265 265 265 265 265 265 265 265 265 265 265 265 266 266 266 266 266 266 265 266 266 266 266 267 268 268 269 269 269 269 270 270 270
264 265 266 264 261 259 257 255 256 258 261 264 266 268 269 270 270 271 273 274 274 272 272 273 272 272 272 273 274 275 276 276 276 276 276 277 276 276 274 274 273 272 271 270 269 268 268 267 267 267 267 266 266 265 265 266 266 266 266 266 266 266 266 267 267 267 267 267 266 266 266 266 267 267 267 267 267 268 268 269 269 269 270 270 270
268 266 266 267 264 261 257 256 258 259 262 264 266 268 270 272 273 272 274 275 276 275 275 275 275 274 274 275 276 277 277 276 276 276 276 277 277 276 276 276 275 274 272 271 270 269 268 268 268 268 268 267 267 266 266 266 266 266 267 266 266 266 267 267 267 268 268 268 267 267 267 267 267 267 267 267 267 268 268 269 269 270 270 271 271
273 269 265 265 264 262 259 258 260 262 264 266 268 269 272 275 276 276 276 277 278 277 277 277 276 276 276 277 277 277 277 276 277 276 276 276 276 277 277 276 275 275 274 273 271 271 270 269 269 269 269 268 268 267 267 267 267 267 267 266 266 266 266 267 267 268 268 268 268 267 267 267 267 267 267 267 267 268 268 269 269 269 270 270 271
272 268 264 265 265 262 261 262 264 266 268 269 270 270 272 275 276 278 279 280 281 280 279 278 278 278 278 279 279 278 277 277 277 277 277 276 276 277 277 276 275 274 274 274 273 272 272 271 271 270 269 268 267 267 266 266 266 266 266 266 266 266 266 267 268 268 268 267 267 267 267 266 266 266 266 267 267 267 268 268 268 269 269 269 269
267 264 263 265 267 265 264 265 267 270 272 273 272 271 272 275 277 278 280 282 284 284 284 283 281 280 281 281 281 280 280 279 278 278 278 277 277 276 276 275 274 273 272 273 272 272 272 272 271 270 269 268 266 265 264 265 265 266 265 265 265 265 266 267 267 267 267 267 267 267 266 266 265 265 265 266 266 267 267 267 267 267 267 267 267
263 262 263 266 269 269 268 268 270 272 274 274 273 274 275 277 279 280 282 284 286 286 287 287 285 284 284 284 285 284 283 281 280 279 278 278 277 276 274 273 272 272 272 271 270 270 269 269 269 269 267 266 265 263 262 263 263 264 264 264 264 265 265 266 266 267 267 268 267 267 266 265 265 265 265 266 266 267 267 267 266 266 266 266 266
262 263 265 267 270 270 270 270 272 274 275 275 276 278 280 282 283 284 284 285 287 287 288 288 287 286 287 288 289 287 285 283 281 280 279 278 276 275 274 273 273 272 272 271 270 269 268 267 267 267 266 265 263 262 261 261 262 262 263 263 264 265 265 265 266 268 269 269 267 266 266 265 265 265 265 266 267 267 267 267 267 266 266 265 265
263 266 269 272 273 273 272 272 273 275 276 277 278 280 282 284 285 286 286 287 287 287 287 287 286 287 289 291 290 288 285 283 281 280 279 278 275 273 273 274 274 273 272 271 270 270 270 269 269 268 266 265 263 262 261 261 261 261 261 261 262 263 264 266 267 268 268 267 266 265 265 265 264 264 264 266 267 268 268 266 266 265 265 265 264
264 269 274 277 278 278 278 277 276 276 277 278 277 278 280 282 285 287 287 287 287 286 285 285 287 288 290 291 289 287 285 283 281 279 278 277 274 271 273 276 275 273 271 271 273 275 276 275 273 271 269 268 265 262 260 259 259 259 259 259 260 261 263 264 265 265 265 264 264 264 264 263 263 263 264 265 265 266 268 266 264 264 265 265 265
265 269 276 280 282 282 282 281 279 277 276 275 275 275 278 281 284 286 286 286 284 283 284 286 288 289 290 290 289 287 285 283 280 278 277 276 274 272 274 274 273 272 273 275 277 278 278 277 276 274 272 271 269 267 263 261 259 258 257 258 260 261 262 262 263 263 263 262 261 261 261 261 261 261 261 261 260 263 266 264 262 264 265 265 266
267 270 274 279 281 282 284 286 283 279 277 275 275 276 279 281 283 284 283 282 281 282 284 287 288 288 287 288 290 288 286 283 281 280 278 276 274 274 273 272 272 273 274 276 278 279 280 279 277 274 272 270 269 268 266 263 259 258 258 259 261 261 260 261 262 263 263 262 260 260 259 259 258 257 254 255 260 261 261 262 261 262 264 264 264
269 270 275 279 280 282 286 287 286 283 281 280 280 281 281 281 282 281 281 279 278 281 283 286 287 286 284 285 286 285 285 283 281 282 279 277 275 274 273 272 273 274 275 275 276 277 279 280 279 276 274 271 269 267 265 262 259 259 259 260 260 260 260 260 261 262 262 262 261 260 258 256 254 253 251 253 258 257 258 263 263 262 263 264 264
269 272 277 281 282 283 284 285 285 285 284 284 284 284 281 280 280 279 278 277 278 281 282 284 285 286 285 286 285 281 280 281 280 280 279 278 276 275 274 274 275 275 275 275 275 276 277 278 278 277 275 274 272 269 267 263 261 260 260 260 260 260 260 260 260 259 260 260 260 259 258 255 252 252 253 254 255 256 258 262 263 263 263 264 265
272 274 278 283 286 283 280 282 285 286 285 285 284 281 278 277 278 276 275 275 278 280 280 281 282 284 286 287 289 283 277 278 279 279 278 277 277 276 276 276 276 276 276 276 276 276 276 276 276 276 275 275 274 272 270 267 263 260 259 260 261 261 260 259 259 256 256 256 256 256 256 255 252 252 255 256 255 255 256 259 261 263 263 264 266
275 276 277 281 282 276 275 281 284 284 284 283 280 276 274 275 275 274 273 274 277 280 278 279 280 283 284 286 289 287 279 277 279 279 278 277 276 276 276 276 276 275 275 276 276 276 276 274 273 273 272 274 275 274 272 270 266 261 257 257 258 259 258 258 257 256 256 255 254 253 254 253 252 253 256 257 255 253 253 257 261 263 264 266 267
276 276 276 277 274 269 271 279 282 282 282 279 274 271 271 273 274 273 272 272 275 279 280 281 283 284 285 285 287 286 281 278 279 279 278 277 276 276 276 275 275 275 274 274 274 274 274 273 272 272 273 274 275 275 273 271 269 263 257 254 253 254 255 255 254 254 255 255 252 251 251 252 252 254 256 255 253 252 253 256 259 262 264 267 267
277 274 271 271 267 266 272 277 280 280 277 274 271 270 272 274 275 274 273 274 277 281 283 284 287 287 286 285 285 284 282 279 279 279 278 278 277 276 276 275 274 273 273 272 272 272 272 272 271 272 274 276 276 275 273 271 269 265 259 254 252 250 251 252 252 251 252 254 252 250 249 250 251 253 254 254 252 252 253 255 258 261 264 267 266
271 264 260 261 260 265 275 279 280 277 275 275 274 274 274 275 276 275 275 277 280 283 284 286 289 288 286 285 285 284 283 281 280 279 279 278 277 277 276 275 274 273 272 272 271 271 272 272 271 270 271 273 274 273 271 269 269 267 261 256 252 250 249 250 252 251 252 254 254 252 251 250 251 251 251 253 252 252 252 253 257 261 265 266 266
261 257 258 261 263 269 275 278 279 278 278 278 277 276 275 275 276 276 277 278 281 283 284 287 287 287 287 286 285 284 283 281 280 280 279 279 278 277 276 275 275 274 273 273 272 272 272 272 272 271 271 271 272 270 267 266 266 266 262 258 254 251 250 250 251 252 253 255 256 255 254 253 253 252 251 252 253 254 254 255 258 262 265 267 266
262 263 264 266 269 272 274 277 279 280 281 280 279 278 278 278 279 280 280 281 283 285 286 288 288 287 287 287 287 286 284 283 282 281 280 280 279 278 277 276 275 275 274 274 273 273 273 273 273 273 272 272 272 269 265 262 261 261 260 259 257 254 253 253 253 254 255 257 257 257 256 254 254 254 254 253 254 255 256 257 259 262 265 267 266
260 262 263 266 271 276 280 281 282 283 282 282 283 283 284 285 285 285 285 286 286 288 289 290 290 290 289 289 289 288 287 286 286 285 284 283 281 279 278 277 277 276 275 275 275 274 274 274 274 274 274 273 273 270 265 261 259 257 257 257 257 255 254 254 254 255 257 258 259 259 258 256 255 255 255 254 255 256 257 258 260 263 264 266 265
261 266 269 273 279 283 284 284 283 283 284 286 289 291 291 290 290 291 291 290 290 290 291 291 291 291 291 290 290 290 289 289 289 288 288 287 285 283 281 280 279 278 278 277 276 275 275 274 273 273 273 272 271 269 266 263 259 256 256 256 256 255 255 255 255 255 256 257 258 259 260 259 258 257 256 255 255 256 257 258 260 263 264 264 264
268 274 279 282 285 286 286 286 286 287 290 292 294 295 294 293 292 293 293 292 292 291 291 291 292 291 291 291 291 291 290 290 290 291 291 290 289 288 286 284 283 282 281 280 278 277 276 274 274 273 271 269 268 267 265 263 259 256 255 254 254 255 256 256 255 254 255 256 256 256 257 258 258 257 256 255 256 257 257 259 260 261 262 263 263
274 279 283 286 287 290 291 292 293 294 294 295 296 296 295 295 294 294 294 293 293 293 293 293 293 293 293 293 293 293 292 291 291 291 291 291 290 289 288 287 286 284 282 281 279 278 276 275 273 272 271 270 268 265 263 261 260 257 255 253 252 253 254 255 254 253 254 256 256 256 256 256 256 256 256 255 256 258 259 259 259 260 262 263 264
278 282 284 286 287 290 294 296 298 297 297 297 297 297 297 297 298 298 298 298 298 297 297 297 296 297 297 297 297 297 297 296 295 294 293 291 290 289 287 286 285 284 283 281 279 278 276 274 273 272 270 270 268 266 263 262 260 258 256 254 252 251 251 252 251 251 252 254 255 256 257 257 258 258 257 257 256 257 258 258 259 260 262 262 263
283 286 287 289 290 292 295 299 301 301 301 302 302 302 303 305 307 308 307 306 305 305 305 305 305 305 304 303 303 303 303 302 300 299 297 296 294 292 290 287 284 283 282 281 280 279 277 275 274 272 270 269 268 267 265 264 263 261 258 255 253 251 251 251 250 250 251 252 253 254 255 255 256 257 258 258 258 257 257 257 257 259 260 261 261
291 292 292 293 296 297 300 305 308 308 309 312 314 316 319 323 325 324 322 320 318 318 317 316 315 314 312 311 309 308 307 306 305 303 302 300 298 297 295 292 290 286 284 282 281 280 279 278 276 274 272 271 269 268 267 266 265 265 262 259 256 254 253 252 251 251 251 251 252 253 254 255 255 256 257 258 258 258 258 257 257 257 259 260 260
300 298 298 302 305 308 312 315 317 319 323 328 329 330 333 334 334 332 330 329 328 326 324 322 321 320 318 317 315 313 311 309 308 305 303 300 298 297 295 294 292 290 288 286 283 281 279 278 277 276 274 272 271 270 268 267 267 266 265 263 260 258 257 256 254 253 252 252 253 254 255 256 256 257 258 259 259 259 259 258 258 258 259 260 261
307 306 310 315 317 319 324 326 327 329 330 333 335 336 336 336 334 334 334 332 331 328 326 325 324 323 322 320 319 316 314 312 310 307 305 302 299 297 295 294 292 290 288 286 284 283 281 279 277 276 275 273 272 270 269 268 267 267 266 265 264 262 260 259 258 257 256 255 254 255 256 257 258 259 260 260 260 260 260 260 260 260 261 261 262
314 318 325 326 327 329 332 336 335 333 331 334 338 339 339 339 338 338 337 336 335 333 331 330 328 327 325 323 320 317 314 312 309 307 305 303 301 299 297 295 293 291 289 286 284 283 281 280 279 277 276 275 273 271 270 268 267 267 267 266 266 265 263 263 262 261 260 260 258 257 257 258 259 260 261 261 261 261 262 263 263 264 264 264 265
325 334 339 339 339 339 341 343 341 340 340 342 343 344 345 345 345 345 343 343 342 340 338 336 334 332 329 326 323 320 318 315 313 310 307 305 302 300 298 296 294 292 290 288 287 285 283 281 280 279 277 276 275 273 271 268 266 265 266 267 266 266 265 265 265 264 262 262 262 261 261 260 261 261 262 262 262 262 263 264 265 265 266 267 268
348 353 352 348 346 346 348 349 349 350 351 350 350 351 352 352 351 350 349 348 346 344 342 340 338 337 334 332 329 327 325 323 320 317 314 311 308 305 302 299 297 295 293 290 288 287 285 283 282 281 279 277 276 274 272 270 268 265 264 265 266 266 265 264 264 264 263 263 263 263 263 262 261 262 263 263 263 263 264 264 266 267 267 268 269
9 3 356 351 348 350 353 355 356 358 358 359 359 358 356 355 354 352 351 349 347 345 343 342 341 339 338 336 335 333 331 329 327 324 321 319 315 312 309 306 303 300 297 294 291 289 287 285 283 281 280 278 276 274 273 271 269 266 264 263 264 265 265 264 263 264 264 263 263 262 262 262 262 262 263 263 264 264 265 266 267 268 269 269 270
12 1 355 353 353 355 358 360 1 2 3 2 360 358 357 355 354 353 351 350 348 346 344 342 342 341 341 340 339 337 335 333 332 329 327 325 322 319 317 314 311 308 305 302 298 294 291 287 284 281 279 277 276 274 272 271 270 268 266 264 264 264 263 263 263 264 265 264 263 261 261 262 262 262 262 262 263 265 267 268 268 268 269 270 271
11 8 8 6 4 4 5 6 6 6 5 2 360 0 359 357 357 356 354 352 350 348 347 345 345 344 343 341 340 338 337 335 334 332 331 329 327 324 322 320 318 315 312 309 306 302 298 294 291 288 284 281 278 275 272 270 269 268 266 265 265 264 263 262 262 262 264 264 264 263 262 262 262 262 262 262 264 265 267 268 268 269 270 271 272
23 24 24 18 14 13 13 12 10 9 6 4 5 5 4 3 2 1 359 358 356 354 352 349 347 343 340 338 336 335 334 333 333 332 332 330 328 326 324 322 320 316 313 309 306 304 301 299 296 293 291 287 284 281 277 272 269 266 265 263 263 263 263 262 262 262 262 262 262 264 263 262 262 262 262 263 264 264 266 267 269 270 271 272 272
36 30 26 22 20 19 17 15 13 12 11 10 10 10 9 9 8 6 5 2 360 356 352 348 344 341 339 337 335 334 333 332 332 332 332 330 328 326 323 321 318 314 310 306 304 302 299 297 294 292 289 287 285 283 281 277 273 269 266 263 261 260 261 261 261 260 260 260 260 261 261 260 261 261 262 263 264 265 266 267 269 271 272 272 273
36 31 29 26 24 21 19 18 17 16 15 14 13 11 10 9 7 5 3 360 357 353 350 348 347 347 346 344 342 339 336 333 332 331 331 330 329 327 325 323 319 315 311 308 305 303 299 296 292 289 287 284 282 281 280 279 276 273 270 266 262 259 258 258 258 257 258 258 258 258 259 261 261 261 262 263 265 266 267 268 270 271 272 273 274
36 32 30 27 25 23 21 20 19 18 16 14 11 8 6 4 2 1 359 358 357 356 356 355 354 352 350 349 346 343 338 334 331 329 329 330 329 328 327 326 323 319 316 313 310 306 302 298 294 291 288 285 282 279 278 278 276 273 271 268 265 261 258 256 255 254 254 256 256 256 258 260 261 261 261 263 265 266 268 269 270 271 272 273 274
37 33 30 28 27 25 23 21 19 17 14 11 9 6 4 2 1 1 0 360 359 359 358 356 355 352 350 348 347 344 341 336 332 330 330 330 330 329 329 328 326 323 320 317 313 310 306 302 299 295 291 287 283 280 277 276 275 273 270 268 265 263 260 257 254 251 251 252 254 254 256 257 258 258 259 262 264 266 268 269 270 271 271 273 274
37 35 32 29 27 24 22 19 17 15 12 10 8 6 4 3 2 1 360 360 359 358 357 356 354 351 349 348 346 345 343 339 336 333 332 331 331 331 331 330 329 326 323 320 317 314 310 306 302 298 293 289 284 280 277 275 273 272 271 268 264 262 260 258 255 252 250 250 251 251 252 254 255 255 256 259 262 265 267 269 270 270 271 272 274
37 34 31 27 24 21 19 17 15 14 12 11 8 6 5 3 1 0 360 359 359 357 356 354 352 350 349 348 347 346 344 342 339 336 335 333 333 333 333 332 330 327 325 322 320 317 313 309 305 301 296 292 287 282 278 275 272 271 269 267 264 261 259 257 255 253 251 250 250 250 250 251 253 254 255 256 259 262 264 266 267 268 270 271 273
36 31 27 25 22 19 16 15 14 13 12 10 7 6 4 3 1 0 360 359 358 356 355 353 352 351 350 349 348 347 345 342 340 338 337 336 335 335 334 333 331 329 327 325 322 319 315 311 307 303 298 294 289 285 281 277 273 271 268 266 263 260 257 255 253 251 250 249 249 249 249 250 251 253 254 255 257 260 261 263 264 266 268 270 272
31 27 24 20 18 17 14 13 11 10 9 7 6 5 4 3 1 360 359 358 357 356 355 354 353 352 352 351 349 347 345 343 341 339 338 338 338 337 336 335 333 331 329 328 325 321 318 314 310 305 300 296 292 288 284 279 275 272 268 265 262 258 254 252 250 249 247 247 247 247 248 248 249 250 252 254 256 258 260 261 262 264 265 268 270
Height
10793 10793 10794 10794 10795 10795 10795 10796 10796 10796 10797 10797 10797 10797 10797 10797 10797 10797 10796 10796 10795 10795 10794 10794 10793 10793 10793 10793 10793 10793 10793 10792 10792 10791 10791 10791 10791 10791 10791 10791 10791 10791 10792 10792 10792 10792 10792 10792 10792 10792 10792 10793 10794 10795 10796 10797 10798 10799 10800 10800 10801 10802 10802 10802 10802 10802 10802 10803 10803 10803 10803 10803 10803 10803 10803 10803 10804 10804 10805 10806 10807 10807 10806 10807 10807
10790 10790 10791 10791 10791 10792 10792 10793 10793 10793 10793 10793 10793 10793 10793 10793 10792 10792 10792 10792 10791 10790 10790 10789 10789 10788 10788 10788 10787 10787 10787 10787 10786 10786 10785 10785 10785 10786 10786 10786 10786 10786 10787 10787 10787 10787 10787 10787 10787 10787 10787 10787 10788 10789 10790 10791 10791 10792 10793 10794 10795 10796 10796 10796 10796 10796 10797 10798 10799 10799 10799 10799 10798 10798 10797 10797 10798 10799 10799 10800 10800 10800 10800 10801 10801
10787 10787 10788 10788 10788 10788 10789 10789 10789 10789 10790 10789 10789 10789 10788 10788 10788 10788 10788 10787 10787 10786 10786 10785 10784 10784 10783 10783 10782 10782 10782 10781 10781 10781 10781 10781 10780 10780 10780 10781 10781 10781 10782 10782 10782 10782 10782 10782 10782 10782 10782 10782 10783 10783 10784 10784 10785 10785 10787 10788 10789 10790 10790 10790 10790 10790 10791 10793 10793 10794 10795 10795 10793 10792 10792 10792 10792 10793 10793 10794 10794 10794 10795 10795 10795
10785 10785 10785 10785 10784 10785 10785 10785 10785 10785 10785 10785 10785 10785 10784 10784 10784 10784 10784 10784 10783 10783 10783 10782 10781 10780 10779 10778 10778 10778 10777 10777 10776 10776 10776 10776 10776 10776 10776 10776 10776 10776 10777 10777 10776 10777 10777 10777 10777 10777 10777 10778 10778 10778 10778 10778 10778 10779 10780 10782 10783 10784 10785 10784 10784 10785 10785 10787 10788 10788 10789 10789 10788 10787 10787 10787 10787 10787 10787 10787 10788 10788 10789 10789 10789
10782 10782 10782 10781 10781 10781 10781 10781 10781 10781 10781 10781 10781 10781 10781 10781 10780 10780 10780 10780 10780 10780 10779 10778 10777 10776 10775 10774 10774 10773 10773 10772 10772 10771 10770 10771 10771 10771 10771 10771 10771 10772 10772 10772 10772 10772 10772 10772 10772 10772 10772 10773 10772 10771 10771 10771 10771 10772 10774 10776 10777 10779 10779 10778 10778 10779 10779 10781 10781 10782 10782 10782 10781 10781 10781 10781 10781 10781 10781 10782 10782 10782 10783 10783 10783
10778 10778 10777 10777 10777 10777 10777 10777 10778 10778 10778 10778 10778 10778 10778 10777 10777 10777 10776 10776 10776 10776 10775 10774 10773 10772 10771 10771 10770 10770 10769 10768 10767 10766 10766 10766 10766 10766 10766 10767 10767 10767 10767 10766 10766 10766 10767 10767 10766 10766 10767 10767 10765 10764 10764 10764 10765 10766 10768 10770 10771 10772 10773 10772 10773 10773 10773 10774 10775 10775 10775 10775 10775 10775 10775 10776 10776 10776 10776 10776 10776 10776 10777 10777 10777
10775 10774 10773 10773 10773 10774 10774 10774 10774 10775 10775 10775 10774 10775 10775 10774 10773 10773 10772 10772 10771 10771 10770 10770 10769 10769 10768 10767 10767 10766 10765 10764 10763 10762 10761 10761 10761 10761 10761 10762 10762 10762 10762 10761 10761 10760 10760 10761 10760 10759 10760 10760 10759 10758 10758 10758 10759 10760 10762 10763 10765 10766 10766 10766 10766 10767 10767 10767 10767 10768 10768 10768 10769 10769 10769 10770 10771 10770 10770 10770 10770 10771 10771 10771 10771
10771 10770 10770 10770 10770 10771 10771 10771 10771 10771 10771 10771 10771 10772 10771 10771 10770 10769 10768 10768 10767 10767 10766 10766 10765 10765 10764 10764 10763 10762 10760 10759 10758 10758 10757 10757 10757 10757 10757 10757 10757 10757 10757 10756 10755 10754 10754 10754 10753 10753 10754 10754 10753 10753 10753 10753 10754 10755 10756 10757 10758 10759 10759 10759 10760 10760 10760 10760 10760 10760 10762 10763 10763 10763 10764 10765 10764 10764 10764 10764 10765 10765 10766 10765 10764
10768 10768 10768 10768 10768 10768 10768 10768 10768 10768 10768 10768 10769 10769 10768 10767 10766 10766 10765 10764 10763 10762 10762 10762 10761 10761 10761 10760 10759 10758 10756 10755 10754 10754 10754 10753 10753 10752 10752 10753 10752 10751 10751 10751 10750 10749 10748 10747 10747 10747 10747 10747 10747 10747 10748 10748 10748 10749 10750 10751 10752 10753 10753 10753 10754 10754 10753 10753 10752 10753 10757 10759 10758 10757 10759 10758 10758 10758 10759 10759 10759 10759 10760 10759 10759
10765 10765 10766 10766 10765 10765 10764 10765 10765 10765 10765 10766 10766 10766 10765 10764 10763 10762 10761 10760 10760 10759 10759 10758 10758 10758 10758 10757 10756 10754 10753 10752 10750 10750 10750 10750 10749 10748 10748 10748 10747 10746 10745 10745 10745 10744 10742 10742 10742 10742 10741 10741 10742 10742 10743 10743 10743 10744 10745 10745 10746 10747 10748 10748 10748 10748 10747 10746 10746 10748 10752 10754 10753 10752 10753 10752 10752 10753 10753 10753 10752 10753 10753 10753 10752
10763 10764 10763 10763 10762 10762 10762 10762 10762 10762 10763 10763 10763 10763 10762 10761 10760 10759 10758 10757 10757 10756 10755 10755 10756 10755 10755 10753 10752 10751 10749 10748 10746 10745 10745 10745 10744 10743 10743 10743 10742 10741 10740 10740 10739 10738 10737 10736 10736 10737 10736 10736 10737 10737 10738 10738 10739 10739 10740 10740 10741 10742 10742 10743 10743 10741 10740 10740 10741 10743 10746 10748 10747 10746 10747 10746 10746 10747 10747 10747 10746 10746 10746 10746 10745
10761 10761 10760 10760 10760 10760 10760 10760 10760 10760 10760 10760 10760 10760 10759 10759 10758 10757 10755 10754 10754 10753 10752 10752 10752 10752 10751 10749 10748 10747 10745 10744 10742 10741 10740 10740 10739 10738 10738 10737 10737 10736 10735 10734 10734 10733 10732 10731 10731 10731 10731 10731 10732 10732 10733 10734 10734 10734 10735 10735 10736 10736 10737 10737 10736 10735 10734 10735 10737 10738 10739 10741 10741 10740 10741 10741 10741 10741 10740 10740 10740 10739 10739 10739 10739
10759 10758 10758 10757 10758 10758 10758 10758 10758 10758 10758 10757 10757 10757 10756 10756 10755 10753 10752 10751 10750 10750 10749 10749 10748 10748 10747 10745 10744 10742 10740 10738 10737 10736 10735 10734 10733 10733 10732 10732 10731 10730 10729 10729 10728 10727 10726 10725 10725 10725 10725 10725 10726 10727 10728 10729 10729 10730 10730 10730 10730 10731 10731 10731 10730 10730 10731 10732 10732 10732 10732 10734 10734 10735 10736 10735 10735 10735 10734 10733 10733 10733 10732 10733 10732
10756 10756 10755 10755 10756 10755 10755 10755 10755 10755 10755 10755 10754 10754 10753 10753 10752 10750 10749 10748 10747 10747 10746 10745 10744 10743 10742 10740 10738 10737 10735 10733 10732 10731 10730 10729 10728 10727 10726 10726 10726 10725 10724 10723 10722 10721 10720 10719 10719 10719 10719 10719 10720 10721 10722 10723 10724 10724 10724 10724 10724 10725 10725 10726 10726 10726 10727 10728 10727 10726 10727 10728 10729 10730 10730 10730 10730 10729 10728 10728 10727 10727 10727 10726 10726
10754 10754 10753 10753 10753 10753 10753 10753 10753 10753 10752 10752 10752 10751 10750 10750 10749 10748 10746 10745 10744 10743 10743 10742 10740 10739 10738 10736 10734 10732 10731 10729 10728 10727 10726 10725 10724 10723 10723 10722 10722 10721 10720 10719 10718 10717 10716 10715 10715 10714 10714 10714 10714 10715 10717 10718 10718 10718 10717 10717 10718 10720 10721 10721 10722 10722 10722 10722 10722 10722 10722 10722 10723 10725 10725 10726 10726 10724 10723 10722 10722 10722 10721 10721 10720
10753 10753 10752 10751 10751 10751 10751 10751 10750 10750 10750 10750 10749 10749 10748 10747 10746 10745 10744 10743 10741 10740 10739 10738 10737 10736 10734 10732 10731 10729 10727 10726 10725 10724 10723 10722 10721 10720 10720 10719 10719 10718 10717 10716 10715 10714 10713 10712 10712 10711 10711 10711 10711 10711 10712 10712 10712 10711 10710 10711 10713 10715 10716 10716 10716 10716 10716 10717 10718 10718 10717 10717 10718 10720 10722 10722 10721 10720 10718 10717 10717 10716 10716 10716 10715
10752 10751 10750 10750 10750 10749 10749 10748 10748 10748 10747 10747 10747 10746 10745 10744 10743 10742 10741 10740 10739 10737 10737 10736 10734 10733 10731 10730 10728 10726 10725 10723 10722 10721 10720 10719 10718 10718 10717 10717 10716 10715 10715 10714 10712 10711 10710 10710 10709 10709 10709 10708 10708 10708 10709 10708 10707 10705 10704 10707 10710 10711 10711 10711 10711 10711 10711 10712 10713 10713 10714 10714 10715 10717 10718 10716 10716 10716 10713 10711 10711 10711 10711 10711 10711
10750 10749 10749 10748 10748 10747 10746 10745 10745 10745 10745 10745 10744 10743 10742 10742 10741 10740 10739 10738 10736 10735 10734 10733 10732 10730 10729 10727 10726 10724 10722 10721 10720 10719 10718 10717 10716 10715 10715 10714 10713 10713 10712 10711 10710 10709 10708 10707 10706 10706 10706 10706 10706 10706 10706 10705 10702 10700 10702 10705 10706 10706 10706 10707 10706 10706 10706 10707 10708 10709 10710 10711 10712 10712 10712 10711 10712 10712 10708 10705 10705 10706 10706 10706 10706
10748 10747 10747 10746 10746 10744 10743 10743 10742 10742 10742 10742 10741 10740 10740 10739 10739 10738 10737 10735 10734 10733 10732 10731 10729 10728 10726 10725 10724 10722 10720 10719 10718 10716 10715 10714 10714 10713 10712 10711 10711 10710 10709 10708 10707 10706 10705 10704 10704 10703 10703 10703 10704 10704 10703 10701 10698 10698 10700 10702 10701 10701 10702 10703 10703 10702 10702 10702 10704 10705 10706 10707 10708 10707 10706 10708 10709 10707 10704 10701 10701 10702 10702 10702 10702
10745 10745 10745 10744 10743 10742 10741 10740 10740 10740 10739 10739 10738 10738 10737 10737 10736 10735 10734 10733 10732 10731 10730 10728 10727 10725 10724 10722 10721 10720 10718 10717 10716 10714 10713 10712 10711 10710 10709 10709 10708 10707 10706 10705 10704 10703 10702 10702 10701 10700 10700 10700 10701 10700 10699 10696 10695 10696 10698 10698 10697 10698 10698 10699 10699 10699 10698 10699 10700 10701 10702 10703 10703 10702 10702 10705 10705 10703 10702 10700 10698 10698 10698 10698 10698
10742 10742 10742 10742 10741 10739 10738 10738 10738 10738 10737 10737 10736 10735 10735 10734 10734 10733 10732 10731 10730 10729 10727 10726 10724 10722 10721 10720 10718 10717 10716 10714 10713 10712 10711 10710 10709 10708 10707 10706 10705 10704 10703 10702 10701 10700 10699 10699 10698 10698 10698 10698 10698 10697 10695 10692 10693 10694 10694 10694 10694 10695 10695 10695 10695 10695 10695 10695 10696 10697 10699 10699 10699 10698 10699 10701 10700 10700 10699 10698 10696 10694 10694 10694 10694
10739 10739 10739 10740 10739 10737 10736 10736 10736 10736 10736 10735 10734 10733 10733 10732 10732 10731 10730 10729 10728 10727 10725 10723 10722 10720 10718 10717 10716 10714 10713 10712 10711 10709 10708 10707 10706 10705 10704 10703 10702 10701 10700 10699 10699 10698 10697 10696 10696 10695 10695 10696 10695 10694 10691 10689 10690 10691 10691 10691 10691 10691 10691 10692 10692 10692 10692 10691 10692 10693 10695 10696 10695 10695 10695 10696 10695 10696 10696 10695 10692 10690 10689 10690 10690
10736 10737 10737 10737 10737 10735 10735 10735 10735 10735 10734 10733 10733 10732 10731 10730 10730 10729 10728 10727 10726 10724 10723 10721 10719 10718 10716 10715 10713 10712 10711 10710 10708 10707 10706 10704 10703 10702 10701 10700 10699 10698 10697 10697 10696 10695 10694 10693 10693 10693 10693 10693 10692 10691 10688 10686 10686 10688 10688 10688 10688 10687 10688 10689 10689 10688 10688 10688 10689 10690 10691 10691 10691 10692 10692 10691 10692 10692 10692 10690 10687 10685 10685 10685 10685
10734 10734 10734 10734 10734 10734 10733 10734 10734 10733 10733 10732 10731 10730 10729 10729 10728 10727 10726 10725 10723 10722 10720 10719 10717 10715 10713 10712 10710 10709 10708 10706 10705 10704 10703 10701 10700 10699 10697 10696 10696 10695 10694 10693 10692 10692 10691 10690 10690 10690 10690 10690 10689 10688 10685 10683 10683 10684 10684 10684 10684 10684 10684 10685 10685 10685 10685 10684 10685 10686 10687 10687 10688 10688 10688 10687 10687 10688 10687 10685 10682 10681 10680 10680 10681
10733 10733 10733 10733 10733 10733 10732 10732 10732 10732 10731 10730 10730 10729 10728 10727 10726 10725 10724 10722 10721 10720 10718 10716 10715 10713 10711 10709 10707 10706 10705 10703 10702 10701 10700 10698 10697 10695 10694 10693 10692 10691 10690 10689 10689 10688 10687 10687 10686 10687 10687 10687 10686 10684 10681 10679 10679 10680 10680 10680 10681 10681 10680 10680 10680 10680 10681 10680 10681 10682 10683 10683 10684 10685 10685 10683 10681 10681 10682 10681 10678 10676 10676 10676 10678
10732 10732 10732 10732 10732 10732 10731 10731 10731 10730 10730 10729 10728 10727 10726 10725 10724 10722 10721 10720 10718 10717 10715 10714 10712 10710 10708 10707 10705 10703 10702 10700 10699 10697 10696 10695 10693 10692 10690 10689 10688 10687 10686 10685 10685 10684 10683 10683 10682 10682 10683 10683 10683 10680 10677 10675 10676 10676 10676 10676 10677 10677 10676 10676 10675 10675 10676 10676 10677 10678 10679 10680 10679 10679 10680 10678 10676 10676 10677 10676 10675 10673 10671 10672 10673
10732 10731 10731 10731 10731 10731 10730 10730 10729 10729 10728 10727 10726 10725 10724 10723 10721 10720 10718 10717 10715 10714 10712 10711 10709 10708 10706 10704 10703 10701 10699 10697 10695 10694 10692 10691 10689 10687 10686 10685 10684 10683 10682 10681 10680 10680 10679 10678 10678 10678 10678 10678 10678 10676 10673 10671 10672 10672 10672 10672 10673 10673 10672 10671 10671 10671 10671 10672 10672 10673 10674 10675 10674 10674 10675 10674 10672 10671 10671 10671 10670 10669 10667 10667 10668
10731 10730 10730 10730 10730 10729 10729 10728 10728 10727 10726 10725 10724 10723 10722 10720 10719 10717 10716 10714 10712 10711 10709 10708 10706 10705 10703 10701 10700 10698 10696 10694 10692 10690 10688 10687 10685 10683 10681 10680 10679 10678 10677 10677 10676 10675 10674 10674 10673 10673 10673 10673 10673 10671 10668 10667 10668 10669 10668 10668 10669 10669 10668 10667 10667 10667 10667 10667 10667 10667 10668 10669 10669 10669 10669 10668 10668 10666 10665 10665 10665 10664 10663 10662 10662
10729 10728 10728 10728 10728 10728 10727 10727 10726 10725 10724 10723 10722 10721 10719 10718 10716 10715 10713 10712 10710 10708 10707 10705 10703 10702 10700 10698 10696 10695 10693 10691 10689 10687 10685 10682 10680 10678 10677 10675 10674 10673 10672 10671 10670 10669 10669 10668 10668 10667 10667 10667 10667 10665 10662 10661 10663 10664 10663 10663 10664 10664 10663 10662 10662 10662 10662 10662 10662 10662 10662 10663 10663 10663 10663 10662 10662 10661 10660 10660 10659 10658 10658 10658 10657
10727 10727 10727 10727 10727 10726 10726 10725 10724 10723 10722 10721 10720 10718 10717 10715 10714 10713 10711 10709 10707 10706 10704 10702 10700 10699 10697 10695 10693 10691 10689 10687 10686 10683 10681 10679 10677 10675 10673 10671 10670 10668 10667 10666 10665 10664 10663 10662 10661 10661 10661 10661 10661 10659 10657 10655 10656 10658 10658 10658 10659 10658 10658 10657 10656 10656 10656 10656 10656 10656 10657 10656 10656 10656 10656 10656 10656 10655 10655 10654 10653 10653 10653 10652 10651
10727 10726 10726 10726 10725 10725 10724 10723 10722 10721 10720 10719 10718 10716 10714 10713 10711 10710 10708 10706 10705 10703 10701 10699 10697 10695 10693 10691 10690 10688 10686 10684 10682 10680 10678 10676 10674 10672 10669 10667 10666 10664 10663 10661 10660 10659 10658 10657 10656 10655 10655 10655 10655 10654 10651 10649 10650 10651 10652 10652 10653 10652 10651 10652 10651 10651 10651 10651 10651 10651 10651 10650 10650 10650 10650 10650 10650 10649 10649 10648 10648 10647 10648 10647 10646
10726 10726 10725 10725 10724 10723 10723 10722 10721 10720 10718 10717 10716 10714 10712 10710 10709 10707 10705 10703 10702 10700 10698 10696 10694 10692 10690 10688 10686 10685 10683 10681 10679 10677 10675 10673 10671 10669 10667 10664 10662 10660 10658 10657 10656 10654 10653 10652 10650 10649 10649 10648 10648 10647 10645 10643 10643 10645 10646 10646 10646 10645 10645 10645 10645 10645 10645 10645 10645 10645 10645 10645 10644 10644 10644 10644 10644 10644 10643 10643 10642 10642 10642 10642 10641
10725 10724 10724 10723 10723 10722 10721 10721 10719 10718 10717 10715 10714 10712 10710 10708 10706 10705 10703 10701 10699 10697 10695 10693 10691 10690 10687 10685 10683 10681 10679 10677 10675 10673 10671 10669 10667 10665 10663 10661 10659 10657 10655 10653 10651 10650 10648 10647 10646 10644 10643 10643 10642 10641 10640 10637 10636 10637 10639 10639 10639 10639 10638 10637 10638 10639 10639 10638 10638 10638 10638 10639 10638 10637 10637 10638 10638 10638 10637 10637 10636 10636 10637 10637 10636
10724 10723 10722 10722 10721 10721 10720 10719 10718 10717 10715 10714 10712 10710 10709 10707 10705 10703 10701 10699 10697 10695 10693 10691 10690 10688 10685 10683 10681 10679 10677 10674 10672 10670 10667 10665 10663 10661 10659 10657 10655 10653 10651 10649 10647 10645 10644 10642 10641 10640 10638 10638 10637 10636 10635 10633 10630 10630 10631 10632 10632 10632 10631 10631 10632 10632 10632 10631 10632 10632 10632 10631 10631 10631 10631 10631 10631 10631 10630 10630 10630 10630 10631 10631 10630
10723 10722 10721 10721 10720 10720 10719 10718 10717 10716 10715 10713 10711 10709 10708 10706 10704 10702 10700 10698 10696 10694 10692 10690 10688 10686 10683 10681 10679 10676 10674 10671 10669 10667 10664 10662 10660 10657 10655 10653 10650 10648 10646 10644 10642 10640 10639 10637 10636 10634 10633 10633 10632 10631 10630 10629 10626 10624 10623 10623 10625 10626 10625 10624 10625 10625 10625 10625 10626 10626 10625 10624 10624 10624 10624 10624 10623 10623 10623 10622 10623 10624 10624 10624 10624
10723 10722 10721 10720 10720 10719 10719 10718 10717 10715 10714 10713 10711 10709 10707 10705 10703 10701 10699 10697 10695 10693 10690 10688 10686 10683 10681 10678 10676 10673 10671 10668 10666 10663 10661 10658 10656 10653 10650 10648 10646 10643 10641 10639 10637 10635 10632 10631 10630 10628 10627 10626 10627 10626 10625 10624 10622 10618 10616 10615 10616 10618 10618 10617 10618 10618 10618 10618 10619 10619 10618 10617 10617 10617 10617 10616 10615 10615 10615 10615 10617 10618 10618 10618 10617
10722 10722 10721 10720 10720 10719 10718 10717 10716 10715 10713 10712 10710 10708 10706 10704 10702 10700 10698 10696 10694 10691 10689 10687 10684 10682 10679 10676 10674 10671 10668 10665 10663 10660 10657 10654 10651 10649 10646 10643 10640 10638 10636 10634 10632 10629 10626 10624 10623 10622 10621 10619 10619 10620 10619 10619 10617 10614 10610 10607 10608 10609 10610 10610 10611 10612 10612 10611 10612 10612 10611 10610 10610 10610 10609 10608 10607 10607 10608 10609 10610 10611 10611 10611 10611
10722 10722 10721 10720 10720 10719 10718 10717 10716 10714 10713 10711 10710 10708 10706 10704 10701 10699 10697 10695 10692 10690 10687 10685 10683 10680 10677 10674 10672 10669 10666 10663 10660 10657 10654 10651 10648 10645 10642 10639 10636 10633 10631 10628 10626 10624 10621 10618 10615 10615 10614 10612 10611 10611 10612 10611 10610 10609 10605 10600 10599 10601 10602 10604 10603 10604 10606 10605 10604 10604 10604 10603 10603 10603 10601 10599 10598 10599 10601 10602 10603 10604 10604 10604 10603
10722 10722 10721 10720 10720 10719 10718 10717 10716 10714 10712 10711 10709 10707 10705 10702 10700 10698 10696 10693 10691 10689 10686 10683 10681 10678 10675 10672 10669 10666 10663 10660 10656 10653 10651 10648 10645 10641 10638 10635 10632 10629 10626 10623 10621 10618 10615 10612 10609 10607 10606 10605 10604 10603 10603 10602 10601 10602 10601 10595 10592 10593 10594 10596 10595 10595 10598 10599 10598 10597 10595 10595 10597 10596 10593 10590 10588 10590 10593 10595 10596 10596 10597 10597 10596
10723 10722 10721 10721 10720 10719 10718 10717 10715 10714 10712 10710 10708 10706 10704 10702 10700 10698 10695 10693 10691 10688 10685 10682 10679 10676 10673 10669 10666 10662 10659 10656 10653 10649 10646 10643 10640 10637 10634 10631 10628 10625 10622 10618 10616 10613 10609 10606 10602 10599 10597 10594 10594 10594 10593 10592 10591 10592 10593 10590 10586 10585 10585 10588 10587 10586 10589 10590 10590 10590 10587 10587 10590 10590 10585 10580 10580 10582 10585 10588 10589 10589 10590 10590 10589
10723 10722 10722 10721 10720 10719 10718 10716 10715 10713 10711 10710 10708 10706 10704 10702 10700 10698 10695 10692 10689 10687 10683 10680 10677 10673 10669 10666 10663 10659 10656 10652 10649 10646 10642 10639 10635 10632 10629 10626 10622 10619 10616 10612 10609 10606 10603 10599 10595 10592 10589 10585 10583 10583 10583 10582 10580 10581 10582 10581 10578 10577 10577 10580 10580 10579 10580 10581 10581 10582 10580 10579 10582 10582 10576 10572 10573 10575 10577 10580 10581 10581 10582 10583 10581
10723 10723 10722 10721 10720 10719 10718 10716 10714 10713 10711 10710 10708 10706 10704 10702 10699 10696 10693 10690 10687 10684 10681 10678 10674 10671 10668 10664 10661 10657 10654 10650 10646 10643 10639 10635 10631 10627 10623 10619 10616 10612 10608 10604 10601 10597 10593 10590 10586 10582 10579 10576 10572 10571 10572 10572 10571 10570 10571 10571 10569 10567 10569 10571 10572 10573 10572 10572 10571 10572 10575 10573 10574 10574 10568 10565 10566 10568 10570 10571 10572 10573 10575 10575 10575
10724 10723 10723 10722 10720 10719 10717 10716 10715 10713 10711 10709 10707 10705 10703 10700 10697 10695 10692 10689 10686 10683 10680 10677 10674 10671 10667 10664 10660 10656 10652 10648 10644 10640 10636 10632 10627 10623 10619 10615 10611 10606 10601 10597 10593 10589 10585 10581 10577 10573 10569 10565 10561 10558 10559 10560 10559 10559 10559 10560 10559 10557 10558 10561 10565 10567 10565 10564 10563 10565 10567 10565 10565 10567 10562 10558 10559 10561 10564 10564 10564 10566 10568 10569 10568
10725 10724 10723 10722 10720 10719 10718 10716 10715 10713 10711 10709 10706 10704 10702 10699 10696 10693 10691 10688 10685 10683 10680 10676 10673 10669 10665 10661 10657 10653 10649 10645 10641 10637 10633 10629 10624 10620 10616 10612 10608 10602 10597 10592 10587 10583 10579 10574 10569 10565 10561 10556 10550 10545 10544 10546 10546 10546 10546 10547 10548 10548 10549 10550 10555 10559 10556 10554 10557 10557 10555 10555 10558 10558 10554 10551 10551 10555 10558 10559 10559 10560 10561 10561 10562
10725 10724 10723 10722 10721 10720 10718 10717 10715 10713 10711 10709 10707 10704 10702 10699 10697 10694 10691 10688 10685 10681 10677 10673 10669 10665 10661 10657 10653 10649 10645 10641 10637 10633 10629 10625 10620 10616 10612 10607 10602 10597 10592 10587 10582 10577 10571 10566 10561 10556 10551 10547 10541 10534 10530 10530 10532 10532 10532 10533 10535 10537 10539 10540 10545 10549 10547 10544 10548 10548 10545 10548 10551 10548 10546 10545 10544 10548 10552 10553 10554 10554 10554 10554 10555
10726 10725 10724 10723 10721 10720 10718 10716 10714 10712 10711 10708 10706 10704 10702 10699 10696 10693 10690 10686 10682 10678 10674 10669 10665 10661 10657 10654 10650 10646 10642 10638 10634 10630 10625 10621 10615 10611 10606 10601 10595 10590 10584 10579 10574 10568 10562 10556 10551 10545 10539 10535 10530 10524 10517 10514 10515 10517 10519 10519 10521 10524 10526 10528 10533 10538 10537 10534 10537 10540 10539 10542 10543 10540 10539 10537 10536 10541 10545 10547 10547 10547 10548 10548 10548
10727 10725 10724 10723 10721 10720 10718 10716 10714 10712 10710 10708 10706 10703 10700 10697 10694 10691 10687 10684 10680 10676 10672 10668 10664 10660 10656 10652 10649 10644 10640 10635 10631 10626 10622 10617 10610 10605 10600 10595 10589 10582 10576 10570 10564 10558 10551 10544 10538 10532 10526 10520 10516 10511 10505 10499 10498 10500 10504 10506 10507 10509 10511 10515 10520 10525 10527 10525 10528 10532 10533 10535 10535 10534 10533 10530 10530 10534 10537 10540 10541 10541 10542 10541 10542
10727 10726 10724 10723 10721 10720 10718 10716 10714 10712 10709 10707 10704 10702 10699 10696 10693 10690 10686 10682 10678 10675 10671 10667 10663 10659 10655 10651 10646 10642 10637 10632 10627 10622 10618 10613 10606 10600 10595 10588 10581 10575 10568 10561 10553 10546 10538 10530 10522 10515 10509 10504 10500 10496 10491 10485 10482 10482 10486 10491 10493 10495 10497 10501 10506 10511 10515 10516 10518 10523 10525 10526 10527 10528 10528 10525 10525 10527 10529 10533 10535 10536 10536 10536 10537
10727 10726 10724 10723 10721 10719 10718 10716 10713 10711 10708 10706 10703 10701 10698 10696 10693 10689 10686 10682 10678 10674 10670 10666 10662 10658 10653 10648 10643 10638 10632 10627 10623 10618 10613 10608 10602 10595 10589 10582 10575 10567 10559 10551 10543 10534 10524 10515 10507 10499 10492 10486 10482 10479 10475 10470 10466 10465 10468 10474 10478 10480 10483 10486 10492 10497 10503 10506 10509 10513 10516 10518 10519 10521 10523 10521 10519 10521 10524 10527 10530 10531 10530 10530 10532
10727 10726 10724 10723 10721 10719 10717 10715 10713 10710 10708 10706 10703 10701 10698 10695 10692 10688 10685 10681 10677 10673 10668 10664 10659 10655 10650 10645 10639 10634 10629 10624 10619 10614 10609 10603 10597 10590 10583 10576 10568 10560 10551 10542 10532 10521 10510 10499 10490 10483 10475 10468 10463 10459 10457 10454 10451 10450 10452 10456 10461 10466 10469 10472 10478 10484 10490 10495 10499 10503 10506 10509 10512 10514 10516 10516 10514 10516 10519 10522 10525 10525 10524 10525 10527
10727 10726 10724 10723 10721 10719 10717 10714 10712 10710 10708 10706 10703 10700 10697 10694 10690 10687 10683 10679 10675 10671 10666 10661 10656 10651 10646 10641 10636 10631 10626 10620 10615 10610 10604 10598 10591 10584 10576 10568 10559 10550 10541 10531 10521 10509 10497 10486 10475 10466 10458 10452 10446 10442 10440 10438 10436 10435 10437 10441 10446 10451 10456 10459 10464 10471 10478 10484 10488 10492 10496 10499 10503 10505 10508 10509 10509 10510 10512 10516 10520 10520 10519 10521 10523